This is the latest recevied weather packets stored in our database for station/object KC3BHK-2. If no packets are shown the sender has not sent any weather packets the latest 10 day(s).
| Time | Temp. | Humidity | Pressure | Rain* | Wind** | Luminosity | Snow |
|---|---|---|---|---|---|---|---|
| 1778126080 | 13.89° C | - | - | 0 mm | 0.89 m/s, 302° | - | - |
| 1778125775 | 13.89° C | - | - | 0 mm | 0.89 m/s, 25° | - | - |
| 1778125471 | 14.44° C | - | - | 0 mm | 0.45 m/s, 49° | - | - |
| 1778125166 | 13.89° C | - | - | 0 mm | 0.45 m/s, 350° | - | - |
| 1778124858 | 14.44° C | - | - | 0 mm | 0.45 m/s, 308° | - | - |
| 1778124553 | 13.89° C | - | - | 0 mm | 2.24 m/s, 323° | - | - |
| 1778124248 | 14.44° C | - | - | 0 mm | 1.34 m/s, 288° | - | - |
| 1778123943 | 13.89° C | - | - | 0 mm | 1.34 m/s, 252° | - | - |
| 1778123638 | 13.89° C | - | - | 0 mm | 1.34 m/s, 342° | - | - |
| 1778123334 | 14.44° C | - | - | 0 mm | 2.68 m/s, 326° | - | - |
| 1778123026 | 14.44° C | - | - | 0 mm | 0.45 m/s, 300° | - | - |
| 1778122721 | 14.44° C | - | - | 0 mm | 0 m/s | - | - |
| 1778122416 | 14.44° C | - | - | 0 mm | 1.79 m/s, 329° | - | - |
| 1778122112 | 13.89° C | - | - | 0 mm | 0.45 m/s, 333° | - | - |
| 1778121807 | 15° C | - | - | 0 mm | 0.45 m/s, 314° | - | - |
| 1778121502 | 14.44° C | - | - | 0 mm | 0.89 m/s, 307° | - | - |
| 1778121193 | 15° C | - | - | 0 mm | 0 m/s | - | - |
| 1778120889 | 15.56° C | - | - | 0 mm | 1.79 m/s, 300° | - | - |
| 1778120584 | 15° C | - | - | 0 mm | 0.45 m/s, 330° | - | - |
| 1778120279 | 15° C | - | - | 0 mm | 0.45 m/s, 307° | - | - |
| 1778119974 | 14.44° C | - | - | 0 mm | 0 m/s | - | - |
| 1778119670 | 15° C | - | - | 0 mm | 0.89 m/s, 18° | - | - |
| 1778119362 | 15° C | - | - | 0 mm | 0 m/s | - | - |
| 1778119057 | 15.56° C | - | - | 0 mm | 0 m/s | - | - |
| 1778118752 | 15° C | - | - | 0 mm | 0 m/s | - | - |
* Rain latest hour (hover to see other rain measurements)
** Current wind speed in m/s (hover to see current wind gust speed)